Flag for Canada Weather past 2 weeks in Portage la Prairie, Manitoba, Canada

Now
55 °F

Scattered clouds.


Feels Like: 51 °F
Forecast: 48 / 65 °F
Wind: 16 mph from Northwest

Location: Portage Southport A

Current Time: May 27, 2015 at 1:47:49 PM

Latest Report: May 27, 2015 at 1:00 PM


Visibility: 15 mi

Pressure: 30.08 "Hg

Humidity: 63%

Dew point: 43 °F

Location of Portage la PrairieLocation

Historic Weather in Portage la Prairie — Graph

°F

Portage la Prairie temperature yesterday

Maximum temperature yesterday: 82 °F (at 2:00 PM)
Minimum temperature yesterday: 55 °F (at 6:00 AM)
Average temperature yesterday: 72 °F

Past Weeks' High & Low Weather Summary

 TemperatureHumidityPressure
High82 °F (May 26, 2:00 PM)100% (May 14, 6:00 AM)30.46 "Hg (May 14, 6:00 AM)
Low30 °F (May 19, 6:00 AM)22% (May 22, 3:00 PM)29.73 "Hg (May 26, 4:00 PM)
Average59 °F54%30.07 "Hg
* Reported May 12 1:00 PM — May 27 1:00 PM, Portage la Prairie, Weather by CustomWeather, © 2015

Note: Actual official high and low records may vary slightly from our data, if they occured in-between our weather recording intervals... More about our weather records

Advertising

Portage la Prairie weather history for previous 24 hours

 ConditionsComfort  
Time TempWeatherWind HumidityBarometerVisibility
1:00 PM
Wed, May 27
55 °FScattered clouds.16 mph63%30.08 "Hg15 mi
12:00 PM54 °FScattered clouds.14 mph72%30.07 "Hg15 mi
11:00 AM52 °FScattered clouds.10 mph77%30.06 "Hg15 mi
10:00 AM50 °FPartly sunny.16 mph76%30.05 "Hg15 mi
9:00 AM48 °FPartly sunny.15 mph82%30.03 "Hg15 mi
8:00 AM48 °FBroken clouds.15 mph82%30.02 "Hg15 mi
7:00 AM48 °FBroken clouds.16 mph82%30.00 "Hg15 mi
6:00 AM50 °FPassing clouds.14 mph82%29.97 "Hg15 mi
12:00 AM66 °FPassing clouds.14 mph60%29.83 "Hg15 mi
11:00 PM
Tue, May 26
66 °FPassing clouds.9 mph52%29.81 "Hg15 mi
10:00 PM70 °FMore clouds than sun.5 mph40%29.78 "Hg15 mi
9:00 PM72 °FSprinkles. Broken clouds.14 mph44%29.77 "Hg12 mi
8:00 PM75 °FBroken clouds.6 mph39%29.76 "Hg12 mi
7:00 PM77 °FScattered clouds.8 mph32%29.76 "Hg12 mi
6:00 PM81 °FScattered clouds.13 mph28%29.75 "Hg12 mi
5:00 PM82 °FScattered clouds.17 mph26%29.74 "Hg12 mi
4:00 PM82 °FScattered clouds.8 mph26%29.73 "Hg12 mi
3:00 PM82 °FScattered clouds.3 mph25%29.74 "Hg12 mi
2:00 PM82 °FPassing clouds.13 mph26%29.76 "Hg12 mi
1:00 PM81 °FPassing clouds.9 mph30%29.77 "Hg12 mi
Weather by CustomWeather, © 2015

See weather overviewHow to use our weather pages